Location: Podia
(1.5569°N, 32.3469°E)
Time: 14:53:29
(UTC+00:00)

Cosmos 2016 Rocket - Pass Details

Date: 01 June 2020
Orbit: 947 x 1000 km, 83.0° (Epoch: 04 July)

Event Time Altitude Azimuth Distance (km) Brightness Sun altitude
Rises 16:10:10 0° 352° (N) 3,617 7.4 -4.4°
Reaches altitude 10° 16:12:39 10° 350° (N) 2,680 6.8 -5.0°
Maximum altitude 16:18:45 71° 267° (W) 1,019 4.4 -6.4°
Drops below altitude 10° 16:24:57 10° 184° (S) 2,725 6.2 -7.8°
Sets 16:27:30 0° 181° (S) 3,683 6.8 -8.4°
